Wind_Speed
44 42 39 36 33 28 27 24 24 25 22 21 19 18 16 15 15 13 13 12 13 11
46 45 43 39 34 32 30 27 26 26 27 24 22 21 18 16 15 15 15 15 14 14
44 44 44 41 37 33 32 29 29 28 27 26 24 22 21 19 17 18 17 17 16 16
47 47 46 45 40 35 33 31 31 31 29 29 27 26 24 22 20 21 20 19 19 18
46 47 47 46 42 38 35 33 31 32 33 33 31 30 27 26 25 25 23 22 21 20
53 51 50 47 45 41 38 36 35 33 36 35 36 34 31 29 27 27 26 23 22 22
54 54 52 49 46 44 41 39 37 37 35 36 38 38 35 33 31 30 29 27 24 24
48 50 50 49 46 44 44 42 40 40 38 38 39 41 40 38 36 34 32 30 29 28
45 47 48 47 46 44 45 44 44 44 42 41 43 44 43 41 41 38 35 34 32 31
45 46 44 45 44 45 45 45 47 46 46 46 45 47 46 45 43 42 40 38 35 34
46 46 45 44 44 46 46 47 49 49 48 48 47 48 48 46 44 46 44 41 38 36
45 46 47 46 45 47 47 48 50 50 49 49 49 49 47 45 46 49 48 44 42 39
44 45 46 45 47 46 47 47 48 50 51 51 49 49 48 44 43 48 50 49 45 42
39 39 40 41 42 41 42 41 48 51 51 51 51 50 49 47 45 48 51 52 48 46
Wind_Direction
234 236 236 238 238 236 236 236 229 224 230 240 250 250 250 242 230 230 233 234 233 234
234 235 237 237 238 237 238 237 236 234 235 237 242 245 242 239 232 231 231 231 234 234
234 235 236 238 238 237 237 235 237 234 234 233 236 236 236 238 232 230 231 234 236 238
236 235 235 237 237 236 237 234 234 234 233 231 233 234 235 235 234 233 232 233 236 236
235 238 238 237 237 234 234 233 233 234 233 231 231 233 234 234 233 231 230 231 234 237
236 237 239 239 237 236 234 234 232 234 232 230 228 231 233 234 233 233 231 231 234 238
236 238 239 240 238 237 234 233 234 234 236 231 229 230 234 233 231 230 231 232 234 237
239 238 239 240 239 236 234 232 233 235 236 235 232 230 232 231 232 232 233 234 236 236
239 238 237 237 237 236 234 232 231 232 234 236 233 231 231 232 233 234 234 236 237 239
239 239 239 237 236 235 233 231 231 231 232 235 236 234 232 231 234 236 237 238 238 240
237 239 239 235 234 234 231 229 230 231 231 235 238 238 235 234 235 240 240 241 243 244
240 240 239 238 235 232 230 230 230 234 236 236 238 241 241 238 237 241 243 243 244 243
244 242 242 243 241 235 233 232 232 233 237 239 241 244 245 243 242 243 246 246 244 243
249 247 247 246 243 242 241 235 232 233 236 240 243 244 246 244 242 243 244 245 243 241
Height
1530 1534 1539 1544 1548 1551 1554 1557 1560 1564 1567 1570 1573 1574 1576 1577 1578 1580 1582 1583 1584 1585
1521 1526 1530 1536 1540 1545 1549 1552 1556 1559 1562 1565 1567 1570 1572 1574 1576 1577 1579 1580 1581 1583
1513 1518 1523 1528 1533 1538 1542 1547 1550 1553 1556 1560 1562 1565 1568 1570 1571 1573 1575 1576 1578 1579
1504 1508 1514 1519 1524 1530 1535 1539 1544 1547 1550 1554 1557 1560 1562 1564 1566 1568 1569 1571 1573 1574
1495 1500 1503 1508 1515 1522 1526 1532 1536 1540 1543 1547 1551 1553 1556 1558 1560 1562 1563 1565 1567 1569
1483 1487 1492 1498 1505 1512 1518 1523 1528 1532 1535 1539 1543 1546 1549 1552 1554 1556 1558 1559 1561 1562
1469 1475 1481 1488 1495 1502 1508 1514 1519 1523 1527 1531 1535 1539 1542 1545 1547 1548 1551 1553 1555 1556
1458 1465 1471 1477 1483 1491 1497 1503 1509 1514 1518 1522 1526 1530 1533 1536 1539 1541 1543 1545 1547 1549
1448 1453 1458 1465 1471 1479 1485 1492 1498 1502 1507 1511 1514 1517 1522 1527 1529 1532 1534 1536 1539 1541
1439 1443 1448 1455 1462 1466 1472 1481 1485 1491 1495 1498 1502 1506 1511 1515 1519 1522 1524 1527 1531 1533
1431 1434 1438 1443 1449 1454 1460 1466 1473 1478 1483 1489 1492 1495 1499 1505 1511 1511 1514 1519 1522 1524
1419 1424 1429 1433 1437 1442 1448 1455 1461 1469 1474 1477 1481 1484 1490 1497 1501 1501 1502 1508 1511 1514
1412 1417 1420 1424 1429 1433 1439 1444 1451 1456 1462 1466 1471 1475 1480 1487 1491 1492 1495 1498 1501 1504
1406 1410 1416 1422 1427 1434 1439 1440 1438 1441 1448 1453 1458 1463 1467 1473 1479 1480 1479 1482 1487 1490